This demonstration page uses our WeatherBlox Daily Observations layout. Learn more.

Left ArrowRight Arrow

34.02893, -84.19858

Hourly Observations for November 29, 2016

Temp ( °F °C ) Dew Point ( °F °C ) Humidity (%) Winds ( mph kmh ) Pressure ( in mb ) Visibility ( mi km ) Precip ( " mm )
12:53 am 00:53 Cloudy 66 18.9 53 11.7 63 63 SSE 17 28 29.71 1006 10 16 0.00 0.00
1:41 am 01:41 Cloudy 66 18.9 54 12.2 65 65 SSE 9 15 29.71 1006 10 16 0.00 0.00
1:53 am 01:53 Cloudy with Light Rain 66 18.9 55 12.8 68 68 SSE 8 13 29.71 1006 8 13 0.00 0.03
2:07 am 02:07 Cloudy with Nearby Thunderstorms 64 17.8 57 13.9 78 78 SSE 5 7 29.71 1006 3 4 0.08 2.03
2:18 am 02:18 Cloudy with Light Rain 63 17 57 14 83 83 VRB 3 6 29.71 1006 3 5 0.00 0.00
2:34 am 02:34 Cloudy with Heavy Rain 61 16 59 15 94 94 VRB 6 9 29.71 1006 3 4 0.00 0.00
2:43 am 02:43 Cloudy with Rain 61 16.1 58 14.4 90 90 Calm 29.71 1006 3 5 0.26 6.60
2:53 am 02:53 Cloudy with Heavy Rain 60 15.6 58 14.4 93 93 NNW 5 7 29.72 1007 3 4 0.32 8.13
3:01 am 03:01 Cloudy with Heavy Rain 60 15.6 58 14.4 93 93 NW 16 26 29.74 1007 2 3 0.12 3.05
3:28 am 03:28 Cloudy with Heavy Rain 59 15 57 14 94 94 SE 5 7 29.74 1007 2 3 0.00 0.00
3:41 am 03:41 Cloudy with Heavy Rain 60 15.6 58 14.4 93 93 SE 9 15 29.71 1006 2 2 0.60 15.24
3:53 am 03:53 Cloudy with Heavy Rain 61 16.1 59 15 93 93 SSE 10 17 29.70 1006 2 3 0.69 17.53
4:01 am 04:01 Cloudy with Rain 61 16.1 59 15 93 93 SW 8 13 29.74 1007 3 5 0.02 0.51
4:09 am 04:09 Cloudy with Rain 61 16.1 60 15.6 97 97 S 5 7 29.71 1006 3 5 0.05 1.27
4:18 am 04:18 Cloudy with Light Rain 61 16 61 16 100 100 S 6 9 29.71 1006 5 8 0.00 0.00
4:27 am 04:27 Cloudy with Rain 61 16.1 60 15.6 97 97 SSW 3 6 29.71 1006 3 4 0.09 2.29
4:37 am 04:37 Cloudy with Heavy Rain 61 16.1 60 15.6 97 97 S 3 6 29.74 1007 2 3 0.16 4.06
4:44 am 04:44 Cloudy with Heavy Rain 63 17 61 16 94 94 VRB 5 7 29.74 1007 2 3 0.00 0.00
4:53 am 04:53 Cloudy with Heavy Rain 57 13.9 55 12.8 93 93 NW 22 35 29.77 1008 2 3 0.29 7.37
4:58 am 04:58 Cloudy with Heavy Rain 57 14 54 12 88 88 NW 12 19 29.77 1008 2 3 0.00 0.00
5:03 am 05:03 Cloudy with Rain 57 13.9 54 12.2 90 90 NW 13 20 29.77 1008 3 5 0.05 1.27
5:12 am 05:12 Cloudy with Light Rain 55 13 54 12 94 94 NW 10 17 29.80 1009 7 11 0.00 0.00
5:48 am 05:48 Cloudy with Heavy Rain 55 13 54 12 94 94 W 8 13 29.83 1010 2 3 0.00 0.00
5:53 am 05:53 Cloudy with Rain 55 12.8 53 11.7 93 93 Calm 29.80 1009 2 2 0.19 4.83
5:56 am 05:56 Cloudy with Light Rain 55 13 52 11 88 88 W 6 9 29.83 1010 3 4 0.00 0.00
6:03 am 06:03 Cloudy with Light Rain 55 13 54 12 94 94 WNW 3 6 29.83 1010 5 8 0.00 0.00
6:11 am 06:11 Cloudy with Light Rain 55 12.8 53 11.7 93 93 Calm 29.83 1010 7 11 0.01 0.25
6:46 am 06:46 Cloudy with Rain 55 13 54 12 94 94 NW 6 9 29.83 1010 2 3 0.00 0.00
6:53 am 06:53 Cloudy with Rain 55 12.8 53 11.7 93 93 NW 6 9 29.83 1010 3 4 0.09 2.29
7:26 am 07:26 Cloudy with Light Rain 55 13 54 12 94 94 Calm 29.83 1010 3 5 0.00 0.00
7:37 am 07:37 Cloudy with Heavy Rain 55 12.8 53 11.7 93 93 NW 3 6 29.85 1011 2 3 0.14 3.56
7:53 am 07:53 Cloudy with Light Rain 55 12.8 53 11.7 93 93 Calm 29.83 1010 3 4 0.18 4.57
8:38 am 08:38 Cloudy with Light Rain 55 13 54 12 94 94 S 3 6 29.88 1012 3 4 0.00 0.00
8:53 am 08:53 Cloudy with Light Rain 55 12.8 54 12.2 96 96 ESE 3 6 29.85 1011 2 3 0.12 3.05
9:00 am 09:00 Cloudy with Light Rain 55 13 54 12 94 94 VRB 5 7 29.85 1011 1 2 0.00 0.00
9:35 am 09:35 Cloudy with Light Rain 57 13.9 56 13.3 96 96 Calm 29.85 1011 5 8 0.05 1.27
9:53 am 09:53 Cloudy 58 14.4 56 13.3 93 93 Calm 29.85 1011 8 13 0.05 1.27
10:27 am 10:27 Mostly Cloudy 59 15 57 13.9 93 93 SSE 6 9 29.85 1011 8 13 0.00 0.00
10:53 am 10:53 Cloudy 60 15.6 58 14.4 93 93 SSE 6 9 29.86 1011 9 14 0.00 0.00
11:53 am 11:53 Cloudy 62 16.7 59 15 90 90 S 5 7 29.86 1011 10 16 0.00 0.00
12:39 pm 12:39 Cloudy 64 17.8 60 15.6 87 87 S 7 11 29.85 1011 10 16 0.00 0.00
12:51 pm 12:51 Cloudy 64 18 59 15 83 83 S 7 11 29.85 1011 10 16 0.00 0.00
12:53 pm 12:53 Cloudy 64 17.8 60 15.6 87 87 SSW 8 13 29.86 1011 10 16 0.00 0.00
1:04 pm 13:04 Cloudy 64 18 61 16 88 88 S 6 9 29.85 1011 10 16 0.00 0.00
1:20 pm 13:20 Cloudy 64 18 61 16 88 88 S 6 9 29.85 1011 10 16 0.00 0.00
1:53 pm 13:53 Cloudy 65 18.3 61 16.1 87 87 Calm 29.85 1011 10 16 0.00 0.03
2:53 pm 14:53 Cloudy 66 18.9 61 16.1 84 84 SSE 5 7 29.85 1011 10 16 0.00 0.00
3:53 pm 15:53 Cloudy 66 18.9 62 16.7 87 87 SSE 3 6 29.85 1011 10 16 0.00 0.00
4:06 pm 16:06 Cloudy 66 19 63 17 88 88 SSE 3 6 29.85 1011 10 16 0.00 0.00
4:53 pm 16:53 Cloudy 66 18.9 62 16.7 87 87 SE 3 6 29.87 1012 10 16 0.00 0.00
5:53 pm 17:53 Cloudy 66 18.9 62 16.7 87 87 Calm 29.88 1012 10 16 0.00 0.03
6:00 pm 18:00 Cloudy 66 19 63 17 88 88 E 3 6 29.85 1011 10 16 0.00 0.00
6:53 pm 18:53 Cloudy 65 18.3 62 16.7 90 90 VRB 3 6 29.88 1012 10 16 0.00 0.00
7:20 pm 19:20 Cloudy with Heavy Rain 64 18 63 17 94 94 ESE 5 7 29.88 1012 2 3 0.00 0.00
7:28 pm 19:28 Cloudy with Light Rain 64 18 63 17 94 94 Calm 29.88 1012 3 5 0.00 0.00
7:36 pm 19:36 Cloudy 65 18.3 63 17.2 93 93 Calm 29.88 1012 7 11 0.11 2.79
7:44 pm 19:44 Cloudy with Mist and Fog 64 18 63 17 94 94 Calm 29.88 1012 6 10 0.00 0.00
7:53 pm 19:53 Cloudy with Mist and Fog 65 18.3 63 17.2 93 93 Calm 29.89 1012 5 8 0.11 2.79
8:23 pm 20:23 Cloudy with Mist and Fog 65 18.3 63 17.2 93 93 SE 5 7 29.85 1011 5 8 0.01 0.25
8:53 pm 20:53 Cloudy with Mist and Fog 65 18.3 63 17.2 93 93 SE 5 7 29.87 1011 5 8 0.01 0.25
9:53 pm 21:53 Cloudy 66 18.9 64 17.8 93 93 S 8 13 29.86 1011 8 13 0.00 0.00
10:50 pm 22:50 Cloudy 66 19 64 18 94 94 S 7 11 29.85 1011 9 14 0.00 0.00
10:53 pm 22:53 Cloudy 67 19.4 64 17.8 91 91 S 9 15 29.86 1011 9 14 0.00 0.00
11:53 pm 23:53 Cloudy 66 18.9 64 17.8 93 93 SSE 9 15 29.85 1011 9 14 0.00 0.00

Powered by AerisWeather